[[{"header":{"parameterUnit":"m.s-1","parameterCategory":1,"la1":30.2991,"la2":30.254,"lo1":-89.0895,"lo2":-89.0444,"dy":0.0017,"dx":0.0017,"nx":28,"ny":28,"refTime":"2023-08-13T21:00:00:Z","depth":0,"parameterNumber":2,"parameterNumberName":"U-component_of_WINDS"},"data":[0,0,0,0,0,0,0,0,0,0,0,0,0,0,0,0,0,0,0,0,0,0,0,0,0,0,0,0,0,0,0,0,0,0,0,0,0,0,0,0,0,0,0,0,0,0,0,0,0,0,0,0,0,0,0,0,0,0,3.3541,3.3541,0,3.358,3.358,3.3581,3.3478,3.3475,3.3472,3.3469,3.3511,3.3515,3.3519,0,0,0,0,0,0,0,0,0,0,0,0,0,3.3376,3.338,3.3541,3.3541,3.3542,3.358,3.358,3.3581,3.3479,3.3475,3.3471,3.3467,3.3509,3.3514,3.3519,0,0,0,0,0,0,0,0,0,0,0,0,0,3.3435,3.3381,3.3541,3.3495,3.3491,3.358,3.358,3.3581,3.3479,3.3475,3.347,3.3465,3.3508,3.3514,3.352,3.3654,0,0,3.3538,3.3541,0,0,0,0,0,0,0,0,3.3432,3.3441,3.3501,3.3498,3.3495,3.3519,3.3538,3.3606,3.3481,3.3484,3.3468,3.3463,3.3517,3.3522,3.354,3.3656,3.3658,3.3539,3.3543,3.3545,3.3547,0,0,0,0,0,0,0,3.3428,3.3439,3.3556,3.3502,3.3498,3.3472,3.3475,3.355,3.3527,3.3483,3.3476,3.3482,3.3515,3.3535,3.3541,3.3659,3.3539,3.3544,3.3548,3.3551,3.3883,3.3888,0,0,0,0,0,0,3.343,3.3436,3.3555,3.3557,3.3451,3.3479,3.3483,3.3516,3.3526,3.3523,3.3486,3.3477,3.3527,3.3534,3.3542,3.3698,3.3545,3.3551,3.3555,3.3878,3.3884,3.3889,0,0,0,0,0,0,3.3426,3.3441,3.3553,3.3495,3.3507,3.3487,3.3526,3.3519,3.3539,3.3528,3.3524,3.3511,3.3523,3.3533,3.3626,3.3698,3.3554,3.356,3.3872,3.388,3.3887,3.4012,0,0,0,0,0,0,3.3422,3.3441,3.3492,3.3497,3.3511,3.3638,3.353,3.3524,3.355,3.3539,3.355,3.3548,3.352,3.3617,3.3632,3.3704,3.3564,3.3865,3.3875,3.3884,3.4002,3.4023,3.4042,0,0,0,0,0,3.3417,3.3527,3.3495,3.351,3.3575,3.3642,3.365,3.3616,3.3556,3.3607,3.3599,3.3547,3.3687,3.3628,3.3644,3.3718,3.3861,3.3872,3.3884,3.3993,3.4019,3.4041,0,0,0,0,0,0,3.3533,3.3527,3.3492,3.3607,3.3626,3.3625,3.3688,3.3645,3.3682,3.367,3.3626,3.3629,3.373,3.3733,3.3667,3.3847,3.3764,3.3779,3.3841,3.3866,3.3886,3.3883,3.3569,0,0,0,0,0,3.3572,3.3627,3.3619,3.3722,3.3732,3.3709,3.3737,3.3709,3.3727,3.3734,3.3733,3.3753,3.3801,3.3834,3.3878,3.4001,3.4001,3.406,3.408,3.4096,3.411,3.4173,3.4198,3.3927,3.3927,3.3927,0,0,3.3654,3.3657,3.3695,3.3745,3.3756,3.3814,3.3717,3.3783,3.3825,3.3744,3.3831,3.3831,3.385,3.3958,3.4006,3.3964,3.4185,3.4111,3.4125,3.4129,3.4188,3.4213,3.4236,3.3935,3.3934,3.3933,0,0,3.3831,3.384,3.3925,3.3937,3.3954,3.3937,3.3958,3.3963,3.3959,3.4045,3.3985,3.4035,3.4119,3.4134,3.4153,3.4332,3.4284,3.4347,3.4453,3.4514,3.4536,3.4554,3.4617,3.464,3.4361,3.4361,3.4362,0,3.393,3.4015,3.3974,3.4043,3.4066,3.3994,3.4079,3.4093,3.4124,3.4141,3.4094,3.4196,3.4204,3.4313,3.4356,3.4374,3.4395,3.4346,3.4536,3.4554,3.4571,3.463,3.4654,3.4369,3.4368,3.4367,3.4366,0,3.4134,3.4194,3.426,3.429,3.432,3.4397,3.4367,3.4403,3.4371,3.4358,3.4446,3.4452,3.4494,3.4518,3.4489,3.4623,3.4596,3.4543,3.4459,3.4605,3.4659,3.4682,3.4379,3.4377,3.4375,3.4373,0,0,3.4389,3.4392,3.4418,3.4429,3.4441,3.4486,3.4558,3.4598,3.4629,3.4652,3.4711,3.4782,3.4732,3.4753,3.4724,3.4779,3.4917,3.4718,3.4718,3.4754,3.5063,3.5103,3.513,3.4886,3.489,3.4893,3.5061,0,3.4562,3.4686,3.465,3.4774,3.4826,3.4757,3.482,3.4834,3.4824,3.4867,3.4855,3.4906,3.4837,3.4849,3.4899,3.489,3.4979,3.4877,3.4939,3.4942,3.4936,3.5158,3.5201,3.5359,3.5082,3.5086,3.5089,0,3.4782,3.4812,3.494,3.494,3.4961,3.5019,3.505,3.5093,3.5106,3.5095,3.5117,3.5076,3.5146,3.5061,3.5155,3.5087,3.511,3.5109,3.5114,3.5118,3.5024,3.5168,3.5409,3.5432,3.5122,3.5119,3.5117,0,3.4952,3.5025,3.511,3.5122,3.5125,3.5166,3.5169,3.5178,3.5203,3.5231,3.5247,3.5284,3.5304,3.5333,3.5302,3.5243,3.5401,3.5314,3.5393,3.5393,3.5429,3.5427,3.5677,3.5446,3.5445,3.5445,3.5444,0,3.515,3.5231,3.5186,3.5239,3.5327,3.5284,3.5372,3.5367,3.5375,3.5425,3.5367,3.5415,3.5372,3.5416,3.5392,3.5473,3.5483,3.5475,3.5468,3.548,3.5481,3.5495,3.5482,3.5451,3.545,3.5448,3.5447,0,3.5355,3.5329,3.5417,3.5411,3.5412,3.5477,3.5471,3.5519,3.5504,3.5567,3.558,3.5556,3.5604,3.5576,3.5626,3.561,3.5715,3.5693,3.571,3.5704,3.5784,3.5776,3.605,3.6083,3.5832,3.5834,3.5836,0,3.5483,3.5543,3.5543,3.5571,3.5578,3.5625,3.565,3.5609,3.5637,3.5655,3.5701,3.5744,3.5776,3.5856,3.5843,3.588,3.5858,3.5951,3.5863,3.5873,3.5858,3.5854,3.5859,3.5969,3.5972,3.5975,3.5977,0,3.5711,3.5694,3.5732,3.5764,3.5795,3.5819,3.5838,3.5865,3.5823,3.5858,3.5905,3.593,3.5979,3.6022,3.6053,3.6056,3.601,3.6004,3.6024,3.6037,3.6044,3.604,3.5757,3.5998,3.5996,3.5994,3.5993,3.5992,3.5881,3.593,3.5937,3.5979,3.5989,3.6007,3.6051,3.604,3.6079,3.6115,3.6088,3.6144,3.6153,3.619,3.6198,3.6241,3.6203,3.6233,3.624,3.6248,3.6258,3.6037,3.6247,3.6246,3.6245,3.6245,3.6244,0,3.6105,3.6105,3.6145,3.6172,3.6205,3.6157,3.6174,3.6206,3.6255,3.6267,3.6299,3.6353,3.6393,3.6382,3.6418,3.6455,3.6434,3.6466,3.6462,3.6463,3.629,3.6269,3.6481,3.6481,3.6481,3.6481,3.6481,3.6481,3.6225,3.6305,3.6288,3.6372,3.6371,3.6424,3.6438,3.6454,3.6463,3.6525,3.6558,3.655,3.6552,3.6587,3.6622,3.6617,3.6633,3.6672,3.666,3.6499,3.6476,3.6453,3.6433,3.6676,3.6677,3.6829,3.683,3.6831]},{"header":{"parameterUnit":"m.s-1","parameterCategory":1,"la1":30.2991,"la2":30.254,"lo1":-89.0895,"lo2":-89.0444,"dy":0.0017,"dx":0.0017,"nx":28,"ny":28,"refTime":"2023-08-13T21:00:00:Z","depth":0,"parameterNumber":3,"parameterNumberName":"V-component_of_WINDS"},"data":[0,0,0,0,0,0,0,0,0,0,0,0,0,0,0,0,0,0,0,0,0,0,0,0,0,0,0,0,0,0,0,0,0,0,0,0,0,0,0,0,0,0,0,0,0,0,0,0,0,0,0,0,0,0,0,0,0,0,5.6684,5.6685,0,5.6785,5.6787,5.6788,5.6757,5.6755,5.6753,5.6751,5.6848,5.6852,5.6856,0,0,0,0,0,0,0,0,0,0,0,0,0,5.6456,5.646,5.6684,5.6685,5.6687,5.6785,5.6787,5.6788,5.6757,5.6755,5.6752,5.675,5.6846,5.6851,5.6857,0,0,0,0,0,0,0,0,0,0,0,0,0,5.6556,5.6462,5.6684,5.6683,5.6684,5.6785,5.6787,5.6788,5.6758,5.6755,5.6752,5.6749,5.6844,5.6851,5.6858,5.6962,0,0,5.6878,5.6881,0,0,0,0,0,0,0,0,5.655,5.6564,5.6682,5.6684,5.6685,5.6756,5.6742,5.6846,5.6759,5.673,5.6751,5.6747,5.6819,5.6828,5.6853,5.6967,5.6971,5.6879,5.6883,5.6886,5.6888,0,0,0,0,0,0,0,5.6543,5.656,5.6724,5.6684,5.6686,5.6675,5.6686,5.6761,5.679,5.6732,5.673,5.6743,5.6819,5.6847,5.6855,5.6972,5.6879,5.6885,5.6889,5.6892,5.7174,5.7177,0,0,0,0,0,0,5.6537,5.6554,5.6721,5.6727,5.6609,5.6682,5.6694,5.6736,5.679,5.6795,5.6746,5.6741,5.6837,5.6847,5.6859,5.6983,5.6886,5.6892,5.6896,5.717,5.7174,5.7178,0,0,0,0,0,0,5.6532,5.6552,5.6717,5.664,5.666,5.669,5.6737,5.674,5.6767,5.68,5.6804,5.6769,5.6835,5.6849,5.6937,5.6986,5.6895,5.6901,5.7166,5.7172,5.7176,5.7233,0,0,0,0,0,0,5.6525,5.655,5.6592,5.6641,5.6665,5.6796,5.674,5.6744,5.678,5.6775,5.6823,5.6828,5.6833,5.6927,5.6943,5.6993,5.6907,5.7162,5.7169,5.7175,5.7227,5.724,5.725,0,0,0,0,0,5.6517,5.6603,5.6595,5.6615,5.6718,5.6799,5.6811,5.6818,5.6784,5.6825,5.6846,5.6826,5.6978,5.6936,5.6954,5.7007,5.7159,5.7167,5.7174,5.7222,5.7237,5.725,0,0,0,0,0,0,5.6557,5.661,5.6601,5.6706,5.6748,5.6793,5.6845,5.6834,5.6885,5.6878,5.6882,5.6893,5.6982,5.7004,5.6956,5.711,5.7063,5.7075,5.7093,5.7108,5.7119,5.7111,5.6912,0,0,0,0,0,5.6579,5.6642,5.6684,5.6772,5.6794,5.6816,5.6851,5.6853,5.6896,5.6913,5.694,5.698,5.7036,5.7073,5.7127,5.723,5.7238,5.7276,5.7287,5.7297,5.7306,5.7359,5.7375,5.7203,5.7203,5.7203,0,0,5.6623,5.6659,5.6699,5.6781,5.6814,5.6876,5.6831,5.69,5.6945,5.6922,5.7007,5.7028,5.7073,5.7168,5.7211,5.7188,5.7356,5.7307,5.7314,5.7318,5.7369,5.7385,5.7399,5.7209,5.7208,5.7207,0,0,5.6735,5.677,5.6847,5.6881,5.6932,5.6946,5.6964,5.7011,5.7025,5.711,5.7094,5.7146,5.7245,5.7277,5.7306,5.7429,5.7412,5.7446,5.7506,5.7558,5.7571,5.7583,5.7625,5.764,5.7456,5.7456,5.7456,0,5.6782,5.6879,5.6887,5.6957,5.6992,5.6976,5.7052,5.7084,5.7149,5.7172,5.7147,5.7268,5.7297,5.7398,5.7428,5.7453,5.7472,5.744,5.7569,5.7581,5.7593,5.7632,5.7648,5.7459,5.7459,5.7459,5.7458,0,5.6933,5.7,5.7055,5.712,5.7162,5.7234,5.725,5.7291,5.7289,5.7304,5.739,5.7425,5.7484,5.7508,5.7506,5.7609,5.7593,5.7569,5.7521,5.7613,5.7649,5.7665,5.7465,5.7463,5.7462,5.7461,0,0,5.7072,5.7141,5.7161,5.719,5.7244,5.7295,5.7365,5.7425,5.7459,5.7504,5.7561,5.7644,5.7621,5.7654,5.7655,5.7701,5.7793,5.7671,5.7672,5.769,5.7904,5.7921,5.7938,5.7783,5.7786,5.7788,5.79,0,5.7187,5.7313,5.7322,5.7435,5.7495,5.748,5.7541,5.758,5.7596,5.7647,5.7664,5.7722,5.7689,5.7709,5.7754,5.7772,5.7835,5.7765,5.7832,5.7835,5.782,5.7958,5.7976,5.808,5.7915,5.7917,5.7919,0,5.7338,5.7389,5.7509,5.7553,5.7579,5.7634,5.7688,5.7739,5.7781,5.7789,5.7826,5.782,5.7889,5.7841,5.7934,5.7885,5.7914,5.7927,5.7931,5.7936,5.7881,5.7964,5.8113,5.8128,5.7942,5.794,5.7939,0,5.7424,5.7523,5.7607,5.7632,5.7687,5.7725,5.775,5.7789,5.7824,5.7871,5.7893,5.7947,5.7976,5.8017,5.8024,5.7989,5.8117,5.807,5.8123,5.8123,5.8149,5.8147,5.8302,5.8171,5.8171,5.8171,5.817,0,5.755,5.7623,5.7646,5.7698,5.7778,5.7786,5.7864,5.7885,5.7921,5.7973,5.7964,5.8013,5.8021,5.8071,5.8078,5.8152,5.8166,5.8172,5.8172,5.8172,5.8171,5.8189,5.8181,5.8175,5.8174,5.8173,5.8172,0,5.766,5.7679,5.7768,5.7814,5.7826,5.7883,5.792,5.7968,5.7983,5.805,5.8066,5.8089,5.8147,5.816,5.8229,5.8233,5.832,5.8315,5.8307,5.8305,5.8357,5.8351,5.8528,5.855,5.8406,5.8408,5.8409,0,5.7738,5.7794,5.7845,5.7881,5.7907,5.7965,5.8001,5.801,5.8048,5.8099,5.814,5.8198,5.8244,5.8338,5.8359,5.8411,5.8405,5.8463,5.8412,5.8409,5.8402,5.8398,5.8402,5.8472,5.8473,5.8475,5.8476,0,5.7873,5.788,5.7933,5.799,5.8034,5.8078,5.8121,5.815,5.8164,5.8206,5.8267,5.8303,5.8374,5.843,5.8482,5.8504,5.8491,5.8492,5.8506,5.8505,5.8497,5.8499,5.833,5.8487,5.8486,5.8485,5.8485,5.8484,5.7968,5.8016,5.8059,5.8118,5.8152,5.8191,5.8238,5.8259,5.8311,5.837,5.8372,5.8438,5.8476,5.8545,5.8569,5.8619,5.86,5.8622,5.8627,5.8631,5.8635,5.8492,5.8628,5.8628,5.8628,5.8627,5.8627,0,5.81,5.8128,5.8183,5.8243,5.8288,5.8276,5.8321,5.8359,5.8418,5.8456,5.8502,5.8571,5.8625,5.8651,5.8703,5.8738,5.8733,5.8751,5.8747,5.8752,5.865,5.8631,5.8754,5.8754,5.8754,5.8754,5.8753,5.8753,5.8175,5.8255,5.8266,5.8362,5.8387,5.8453,5.848,5.8515,5.8545,5.8623,5.8669,5.8686,5.8718,5.8773,5.8821,5.8827,5.8845,5.8865,5.8868,5.8772,5.8759,5.8747,5.8729,5.887,5.887,5.8966,5.8967,5.8967]}]]